Radiation Dose measured at exhaust stack monitor of Fukushima Daiichi Nuclear Power Station
Date,Time,Unit 5 6 shared exhaust cylinders,Wind Direction,Wind Velocity(m/s)
2021/11/24,00:00,3.9,west-northwest,6.6
2021/11/24,00:10,3.8,west-northwest,6.7
2021/11/24,00:20,3.9,west-northwest,6.1
2021/11/24,00:30,3.9,northwest,6.6
2021/11/24,00:40,4.0,west-northwest,5.4
2021/11/24,00:50,3.9,west-northwest,4.2
2021/11/24,01:00,3.9,west-northwest,2.8
2021/11/24,01:10,3.8,west-southwest,2.5
2021/11/24,01:20,3.8,west-northwest,2.5
2021/11/24,01:30,4.0,west,2.6
2021/11/24,01:40,3.8,west-northwest,3.1
2021/11/24,01:50,3.8,west,2.2
2021/11/24,02:00,3.9,west,2.2
2021/11/24,02:10,3.9,west,3.7
2021/11/24,02:20,4.0,west,4.8
2021/11/24,02:30,3.8,west,5.2
2021/11/24,02:40,3.9,west,2.9
2021/11/24,02:50,4.0,west,2.6
2021/11/24,03:00,3.8,west,2.9
2021/11/24,03:10,4.1,west-southwest,4.1
2021/11/24,03:20,4.1,west-southwest,2.5
2021/11/24,03:30,4.1,west-southwest,2.3
2021/11/24,03:40,4.0,south-southwest,2.2
2021/11/24,03:50,3.9,south-southwest,2.0
2021/11/24,04:00,4.0,southwest,2.6
2021/11/24,04:10,3.9,southwest,4.1
2021/11/24,04:20,3.7,southwest,6.0
2021/11/24,04:30,4.0,west-southwest,5.8
2021/11/24,04:40,4.0,west-southwest,6.4
2021/11/24,04:50,3.9,west-southwest,6.7
2021/11/24,05:00,4.1,west,4.3
2021/11/24,05:10,3.9,west,3.7
2021/11/24,05:20,3.9,west,3.9
2021/11/24,05:30,4.0,west,5.1
2021/11/24,05:40,4.0,west,6.9
2021/11/24,05:50,4.0,west,8.7
2021/11/24,06:00,3.8,west,8.0
2021/11/24,06:10,4.0,west-southwest,8.0
2021/11/24,06:20,3.8,west-southwest,6.6
2021/11/24,06:30,3.9,west-southwest,5.8
2021/11/24,06:40,3.8,west-southwest,5.8
2021/11/24,06:50,4.0,west-southwest,6.3
2021/11/24,07:00,3.7,southwest,5.7
2021/11/24,07:10,3.9,west-southwest,5.7
2021/11/24,07:20,3.8,west-southwest,5.9
2021/11/24,07:30,3.9,west-southwest,6.2
2021/11/24,07:40,3.9,west-southwest,5.0
2021/11/24,07:50,3.9,west-southwest,4.5
2021/11/24,08:00,3.9,west-southwest,4.0
2021/11/24,08:10,3.9,west-southwest,7.3
2021/11/24,08:20,3.8,west,9.0
2021/11/24,08:30,3.9,west,7.9
2021/11/24,08:40,4.0,west,7.7
2021/11/24,08:50,3.8,west-southwest,10.4
2021/11/24,09:00,3.9,west-southwest,11.3
2021/11/24,09:10,3.8,west-southwest,10.9
2021/11/24,09:20,3.9,west-southwest,11.6
2021/11/24,09:30,3.8,west,10.7
2021/11/24,09:40,3.8,west,10.2
2021/11/24,09:50,3.9,west,11.1
2021/11/24,10:00,3.9,west-southwest,9.3
2021/11/24,10:10,3.9,west,8.0
2021/11/24,10:20,4.0,west,9.6
2021/11/24,10:30,4.0,west,9.0
2021/11/24,10:40,3.9,west,8.7
2021/11/24,10:50,3.8,west-southwest,7.9
2021/11/24,11:00,4.0,west-southwest,8.1
2021/11/24,11:10,4.0,west-southwest,6.4
2021/11/24,11:20,3.8,west-southwest,8.3
2021/11/24,11:30,4.0,west-southwest,7.8
2021/11/24,11:40,3.9,west-southwest,11.1
2021/11/24,11:50,4.0,west-southwest,8.7
2021/11/24,12:00,3.9,west-southwest,9.1
2021/11/24,12:10,3.8,west,9.1
2021/11/24,12:20,3.9,west,9.1
2021/11/24,12:30,3.9,west,8.6
2021/11/24,12:40,3.8,west,7.7
2021/11/24,12:50,3.9,west,9.6
2021/11/24,13:00,4.0,west-southwest,10.0
2021/11/24,13:10,3.8,west-southwest,7.7
2021/11/24,13:20,4.0,west,8.8
2021/11/24,13:30,4.0,west-southwest,9.0
2021/11/24,13:40,3.7,west,9.3
2021/11/24,13:50,3.9,west,6.5
2021/11/24,14:00,4.0,west,7.8
2021/11/24,14:10,4.0,west,8.6
2021/11/24,14:20,3.9,west,9.2
2021/11/24,14:30,3.8,west,7.5
2021/11/24,14:40,3.9,west,8.5
2021/11/24,14:50,3.8,west-southwest,6.9
2021/11/24,15:00,4.0,west,6.8
2021/11/24,15:10,3.9,west,8.5
2021/11/24,15:20,3.9,west-southwest,8.5
2021/11/24,15:30,4.0,west,9.2
2021/11/24,15:40,4.0,west,10.6
2021/11/24,15:50,3.8,west,10.5
2021/11/24,16:00,3.9,west,7.7
2021/11/24,16:10,3.9,west,6.6
2021/11/24,16:20,3.9,west-southwest,5.6
2021/11/24,16:30,4.0,west,7.8
2021/11/24,16:40,3.8,west-southwest,7.3
2021/11/24,16:50,4.0,west-southwest,4.8
2021/11/24,17:00,4.0,west-southwest,3.6
2021/11/24,17:10,3.9,west,3.9
2021/11/24,17:20,3.9,west-southwest,5.2
2021/11/24,17:30,3.8,west-southwest,6.8
2021/11/24,17:40,3.9,west,11.8
2021/11/24,17:50,4.0,west-southwest,8.3
2021/11/24,18:00,3.8,west-southwest,10.2
2021/11/24,18:10,3.8,west-southwest,8.6
2021/11/24,18:20,4.0,west-southwest,8.1
2021/11/24,18:30,3.9,west-southwest,7.4
2021/11/24,18:40,4.0,west-southwest,7.7
2021/11/24,18:50,3.9,west-southwest,6.6
2021/11/24,19:00,4.0,southwest,7.5
2021/11/24,19:10,3.9,west-southwest,5.9
2021/11/24,19:20,3.8,west-southwest,5.5
2021/11/24,19:30,3.9,west-southwest,5.2
2021/11/24,19:40,3.9,southwest,2.3
2021/11/24,19:50,3.9,east-northeast,1.5
2021/11/24,20:00,3.9,northwest,1.4
2021/11/24,20:10,3.8,south-southwest,0.9
2021/11/24,20:20,3.7,south,1.7
2021/11/24,20:30,3.8,southwest,2.9
2021/11/24,20:40,3.9,west-southwest,1.5
2021/11/24,20:50,4.0,south-southwest,1.2
2021/11/24,21:00,3.9,south-southwest,1.1
2021/11/24,21:10,3.8,south-southeast,1.2
2021/11/24,21:20,3.9,south-southeast,2.3
2021/11/24,21:30,3.9,-,CALM
2021/11/24,21:40,4.1,south-southeast,1.2
2021/11/24,21:50,3.9,south,3.4
2021/11/24,22:00,3.8,south,4.2
2021/11/24,22:10,3.7,south,3.2
2021/11/24,22:20,3.9,south,3.0
2021/11/24,22:30,4.0,south-southeast,1.7
2021/11/24,22:40,4.0,south,3.3
2021/11/24,22:50,3.9,south,4.6
2021/11/24,23:00,3.9,south-southwest,3.8
2021/11/24,23:10,4.0,south-southwest,2.2
2021/11/24,23:20,4.0,south-southwest,1.7
2021/11/24,23:30,3.8,west,0.6
2021/11/24,23:40,3.8,southwest,0.9
2021/11/24,23:50,3.7,south,2.0
